Regional Weather Roundup
Issued by NWS

Home | Current Version | Previous Version | Text Only | Print | Product List | Glossary Off
Versions: 1 2 3 4 5 6 7 8 9 10 11 12 13 14 15 16 17 18 19 20 21 22 23 24 25 26 27 28 29 30 31 32 33 34 35 36 37 38 39 40 41 42 43 44 45 46 47 48 49 50

000
ASUS45 KTFX 261904
RWRMT
MONTANA HOURLY WEATHER ROUNDUP
NATIONAL WEATHER SERVICE GREAT FALLS MT
104 PM MDT THU MAR 26 2015

NOTE: "FAIR" INDICATES FEW OR NO CLOUDS BELOW 12000 FEET WITH NO
SIGNIFICANT WEATHER AND/OR OBSTRUCTIONS TO VISIBILITY.

* THESE STATIONS ARE NOT UNDER NWS QUALITY CONTROL. THEY DO NOT
   REPORT WEATHER SUCH AS PRECIPITATION OR FOG.

MTZ001>007-043-262000-
WEST OF THE DIVIDE
CITY           SKY/WX    TMP DP  RH WIND       PRES   REMARKS
KALISPELL      CLOUDY    45  41  86 CALM      30.30S
MISSOULA       CLOUDY    48  39  71 SE3       30.35F
BUTTE          CLOUDY    52  34  50 NW15      30.30R
MULLAN PASS    FOG       37  37 100 SW6       30.34R VSB M1/4 WCI  32
* ESSEX        N/A       45  41  86 NW3G8      N/A
* LINCOLN      N/A       44  39  83 W5G14      N/A
* LOOKOUT PASS N/A       44  40  86 SE8G14     N/A
* POLSON       N/A       52  43  72 SW3        N/A
* RONAN APT    PTSUNNY   52  43  72 SE7        N/A
* SEELEY LAKE  N/A       46  40  80 NW2        N/A
* THOMP F APT  PTCLDY    42  29  60 S8G15      N/A
* YAAK HILL    N/A       47  42  83 SW2        N/A
$$

MTZ008-052>055-262000-
SOUTHWEST MONTANA
CITY           SKY/WX    TMP DP  RH WIND       PRES   REMARKS
BOZEMAN        CLOUDY    55  32  42 W7        30.25F
DILLON         PTCLDY    57  32  39 SW20G28   30.28F
* W YELLOWSTON SUNNY     37  28  70 SW5G13     N/A   WCI  33
* THREE FORKS  PTSUNNY   57  36  46 W13G21     N/A
* TWIN BRIDGES PTCLDY    55  28  35 E5         N/A
* BOULDER HILL N/A       49  29  46 VRB3G11    N/A
* HOMESTAKE PS N/A       46  32  58 NW12G19    N/A
* MONIDA PASS  N/A       42  28  58 SE11G16    N/A
* RAYNOLDS PAS N/A       34  15  46 SE18G26    N/A   WCI  23
* WHITEHALL    N/A       56  34  44 NW7G14     N/A
* WISE RIVER   N/A       49  34  56 W14G21     N/A
$$

MTZ009>010-012-014-046-048-049-054-262000-
EAST SLOPES AND CENTRAL MONTANA
CITY           SKY/WX    TMP DP  RH WIND       PRES   REMARKS
CUT BANK       PTSUNNY   61  36  39 W23G32    30.06F
GREAT FALLS    PTSUNNY   61  34  36 W21G33    30.09F
HELENA         CLOUDY    57  37  47 W18G23    30.24F
MALMSTROM AFB  CLOUDY    59  36  42 SW21G29   30.10F
* DEARBORN     N/A       57  36  46 S19G31     N/A
* EAST GLACIER N/A       49  34  56 W17G31     N/A
* MONARCH      N/A       52  28  40 W19G27     N/A
* PENDROY      N/A       58  32  37 NW14G19    N/A
* ROGERS PASS  N/A       41  35  79 SE16G33    N/A
* SWEET GRASS  N/A       58  33  39 NW27G32    N/A
$$

MTZ011-013-016-021-035-040-045-047-050-051-262000-
NORTH CENTRAL MONTANA
CITY           SKY/WX    TMP DP  RH WIND       PRES   REMARKS
HAVRE          PTCLDY    57  34  42 W10       30.06S
LEWISTOWN      CLOUDY    57  34  42 NW14G23   30.10F
* MALTA APT    PTCLDY    54  32  43 N/A        N/A
* CHESTER      N/A       55  35  47 SW6G12     N/A
* DENTON       N/A       61  32  34 W16G22     N/A
* GEYSER       N/A       58  30  35 W26G34     N/A
* JUDITH GAP   N/A       55  30  39 NW9G17     N/A
* LOMA         N/A       62  35  37 SW9G18     N/A
$$

MTZ017>020-022>027-061-062-262000-
NORTHEAST MONTANA
CITY           SKY/WX    TMP DP  RH WIND       PRES   REMARKS
GLASGOW        PTSUNNY   48  30  50 SE13      30.11F
GLENDIVE       CLOUDY    45  30  56 NE3       30.15F
JORDAN         PTCLDY    55  30  39 NW9G17    30.09F
SIDNEY         PTSUNNY   39  30  70 CALM      30.19S
WOLF POINT     CLOUDY    45  34  65 E12       30.17S
* BEAVER HILL  N/A       42  30  63 NE2G11     N/A
* CIRCLE       N/A       51  34  52 S3G10      N/A
* LINDSAY DVD  N/A       44  30  58 SE7G12     N/A
* NAVAJO       N/A       35  30  82 SE6        N/A   WCI  30
* SACO         N/A       49  30  48 E13        N/A
$$

MTZ028>042-056>058-262000-
SOUTHCENTRAL AND SOUTHEAST MONTANA
CITY           SKY/WX    TMP DP  RH WIND       PRES   REMARKS
BAKER          CLOUDY    45  30  56 E3        30.14S
BILLINGS       CLOUDY    57  32  39 NW20G28   30.13F
LIVINGSTON     CLOUDY    55  32  42 W28G38    30.19F
MILES CITY     PTCLDY    52  30  43 SE7       30.11F
* LAUREL APT   PTSUNNY   57  30  36 W11G18     N/A
* ROUNDUP APT  PTSUNNY   57  28  33 W7         N/A
* ALZADA       N/A       47  28  48 W12G18     N/A
* HYSHAM       N/A       53  28  38 W9G14      N/A
* LAME DEER    N/A       46  30  54 NW8G14     N/A
* REED POINT   N/A       59  32  36 W27G34     N/A
* ROSCOE HILL  N/A       56  18  22 NW7G19     N/A
$$

REGIONAL REPORTS...DAKOTAS
CITY           SKY/WX    TMP DP  RH WIND       PRES   REMARKS
WILLISTON      PTCLDY    41  27  58 SE3       30.19S
DICKINSON      CLOUDY    36  30  79 E7        30.16R WCI  30
CROSBY         PTCLDY    39  25  57 SE7       30.21R WCI  34
WATFORD CITY   SUNNY     39  27  62 E3        30.17S
BISMARCK       CLOUDY    36  23  59 E8        30.24R WCI  30
GRAND FORKS    PTSUNNY   30  14  51 N17       30.29R WCI  18
FARGO          PTSUNNY   34  10  37 N22G28    30.25R WCI  22
BUFFALO SD     CLOUDY    45  28  51 E7        30.07S
RAPID CITY     CLOUDY    50  30  46 N23G31    30.10R
$$

REGIONAL REPORTS...WYOMING/IDAHO/WASHINGTON
CITY           SKY/WX    TMP DP  RH WIND       PRES   REMARKS
GILLETTE       CLOUDY    48  34  59 NW15G24   30.14F
SHERIDAN       CLOUDY    54  34  47 N15       30.14F
CODY           PTSUNNY   57  28  33 W13G26    30.17S
YELLOWSTONE LA PTSUNNY   37  27  67 W8        30.36F WCI  31
SALMON         PTCLDY   N/A N/A N/A NW5       30.34F
MULLAN PASS    FOG       37  37 100 SW6       30.34S VSB M1/4 WCI  32
SAND POINT     PTSUNNY   50  46  86 W6        30.32S
SPOKANE        CLOUDY    55  46  72 S8        30.31S
$$

REGIONAL REPORTS...SASKATCHEWAN
CITY           SKY/WX    TMP DP  RH WIND       PRES   REMARKS
MOOSE JAW      CLOUDY    39  34  82 SE12      30.15F WCI  32

$$



USA.gov is the U.S. government's official web portal to all federal, state and local government web resources and services.